| time (UTC) | temp F | wind direction | speed MPH | gust MPH | rain 1hr in | rain 24hr in | rain mn in | humidity % | barometer mb |
| 20260831200054 | 101 | 180 | 3.0 | 11.0 | 0.00 | 0.00 | 0.00 | 42 | 1019.1 |
| 20260831195538 | 101 | 100 | 0.0 | 7.0 | 0.00 | 0.00 | 0.00 | 42 | 1019.1 |
| 20260831195038 | 100 | 167 | 1.0 | 9.0 | 0.00 | 0.00 | 0.00 | 42 | 1019.2 |
| 20260831194558 | 100 | 156 | 2.0 | 11.0 | 0.00 | 0.00 | 0.00 | 43 | 1019.3 |
| 20260831194035 | 100 | 80 | 4.0 | 11.0 | 0.00 | 0.00 | 0.00 | 43 | 1019.4 |
| 20260831193539 | 101 | 92 | 3.0 | 11.0 | 0.00 | 0.00 | 0.00 | 42 | 1019.4 |
| 20260831193056 | 100 | 0 | 3.0 | 10.0 | 0.00 | 0.00 | 0.00 | 42 | 1019.5 |
| 20260831192535 | 100 | 150 | 5.0 | 10.0 | 0.00 | 0.00 | 0.00 | 42 | 1019.6 |
| 20260831192035 | 100 | 132 | 1.0 | 11.0 | 0.00 | 0.00 | 0.00 | 43 | 1019.6 |
| 20260831191549 | 102 | 207 | 4.0 | 11.0 | 0.00 | 0.00 | 0.00 | 42 | 1019.7 |
| 20260831191037 | 102 | 140 | 2.0 | 10.0 | 0.00 | 0.00 | 0.00 | 42 | 1019.8 |
| 20260831190536 | 102 | 154 | 3.0 | 10.0 | 0.00 | 0.00 | 0.00 | 43 | 1019.7 |
| 20260831190059 | 101 | 136 | 3.0 | 10.0 | 0.00 | 0.00 | 0.00 | 42 | 1019.8 |
| 20260831185536 | 101 | 171 | 4.0 | 12.0 | 0.00 | 0.00 | 0.00 | 44 | 1019.9 |
| 20260831185035 | 101 | 189 | 5.0 | 12.0 | 0.00 | 0.00 | 0.00 | 43 | 1020.0 |
| 20260831184553 | 101 | 170 | 4.0 | 10.0 | 0.00 | 0.00 | 0.00 | 43 | 1020.0 |
| 20260831184035 | 101 | 0 | 3.0 | 9.0 | 0.00 | 0.00 | 0.00 | 44 | 1020.1 |
| 20260831183535 | 101 | 100 | 4.0 | 8.0 | 0.00 | 0.00 | 0.00 | 44 | 1020.1 |
| 20260831183048 | 100 | 23 | 1.0 | 8.0 | 0.00 | 0.00 | 0.00 | 43 | 1020.2 |
| 20260831182535 | 100 | 360 | 3.0 | 10.0 | 0.00 | 0.00 | 0.00 | 45 | 1020.2 |
| 20260831182035 | 100 | 131 | 3.0 | 11.0 | 0.00 | 0.00 | 0.00 | 44 | 1020.2 |
| 20260831181548 | 100 | 120 | 5.0 | 11.0 | 0.00 | 0.00 | 0.00 | 45 | 1020.3 |
| 20260831181035 | 99 | 144 | 5.0 | 11.0 | 0.00 | 0.00 | 0.00 | 45 | 1020.4 |
| 20260831180535 | 98 | 82 | 3.0 | 12.0 | 0.00 | 0.00 | 0.00 | 44 | 1020.4 |
| 20260831180055 | 97 | 173 | 3.0 | 12.0 | 0.00 | 0.00 | 0.00 | 48 | 1020.4 |
| 20260831175540 | 97 | 150 | 2.0 | 11.0 | 0.00 | 0.00 | 0.00 | 49 | 1020.5 |
| 20260831175037 | 97 | 161 | 4.0 | 12.0 | 0.00 | 0.00 | 0.00 | 47 | 1020.5 |
| 20260831174549 | 97 | 167 | 6.0 | 12.0 | 0.00 | 0.00 | 0.00 | 47 | 1020.6 |
| 20260831174035 | 97 | 162 | 2.0 | 7.0 | 0.00 | 0.00 | 0.00 | 49 | 1020.7 |
| 20260831173535 | 97 | 0 | 2.0 | 13.0 | 0.00 | 0.00 | 0.00 | 48 | 1020.7 |
| 20260831173053 | 97 | 113 | 4.0 | 13.0 | 0.00 | 0.00 | 0.00 | 51 | 1020.8 |
| 20260831172537 | 97 | 135 | 1.0 | 10.0 | 0.00 | 0.00 | 0.00 | 50 | 1020.8 |
| 20260831172034 | 98 | 143 | 3.0 | 12.0 | 0.00 | 0.00 | 0.00 | 47 | 1020.9 |
| 20260831171555 | 98 | 360 | 6.0 | 12.0 | 0.00 | 0.00 | 0.00 | 48 | 1020.9 |
| 20260831171035 | 97 | 164 | 2.0 | 11.0 | 0.00 | 0.00 | 0.00 | 49 | 1020.9 |
| 20260831170535 | 97 | 122 | 4.0 | 11.0 | 0.00 | 0.00 | 0.00 | 52 | 1020.9 |
| 20260831170113 | 96 | 82 | 1.0 | 10.0 | 0.00 | 0.00 | 0.00 | 53 | 1020.9 |
| 20260831165535 | 96 | 217 | 5.0 | 10.0 | 0.00 | 0.00 | 0.00 | 51 | 1021.0 |
| 20260831165035 | 96 | 164 | 3.0 | 8.0 | 0.00 | 0.00 | 0.00 | 56 | 1021.0 |
| 20260831164551 | 96 | 204 | 1.0 | 8.0 | 0.00 | 0.00 | 0.00 | 55 | 1020.9 |
| 20260831164035 | 96 | 135 | 2.0 | 9.0 | 0.00 | 0.00 | 0.00 | 55 | 1021.1 |
| 20260831163535 | 95 | 54 | 4.0 | 9.0 | 0.00 | 0.00 | 0.00 | 56 | 1021.1 |
| 20260831163045 | 95 | 134 | 3.0 | 11.0 | 0.00 | 0.00 | 0.00 | 56 | 1021.2 |
| 20260831162534 | 95 | 111 | 2.0 | 11.0 | 0.00 | 0.00 | 0.00 | 57 | 1021.1 |
| 20260831162036 | 94 | 186 | 4.0 | 11.0 | 0.00 | 0.00 | 0.00 | 59 | 1021.1 |
| 20260831161556 | 94 | 137 | 5.0 | 11.0 | 0.00 | 0.00 | 0.00 | 59 | 1021.2 |
| 20260831161037 | 93 | 165 | 4.0 | 9.0 | 0.00 | 0.00 | 0.00 | 61 | 1021.2 |
| 20260831160537 | 93 | 186 | 3.0 | 9.0 | 0.00 | 0.00 | 0.00 | 59 | 1021.3 |
| 20260831160054 | 93 | 69 | 2.0 | 9.0 | 0.00 | 0.00 | 0.00 | 62 | 1021.2 |
| 20260831155535 | 92 | 94 | 2.0 | 12.0 | 0.00 | 0.00 | 0.00 | 62 | 1021.0 |
| 20260831155037 | 92 | 192 | 4.0 | 12.0 | 0.00 | 0.00 | 0.00 | 64 | 1021.1 |
| 20260831154622 | 92 | 140 | 5.0 | 11.0 | 0.00 | 0.00 | 0.00 | 63 | 1021.2 |
| 20260831154034 | 92 | 108 | 2.0 | 8.0 | 0.00 | 0.00 | 0.00 | 67 | 1021.1 |
| 20260831153535 | 91 | 117 | 2.0 | 10.0 | 0.00 | 0.00 | 0.00 | 68 | 1021.1 |
| 20260831153052 | 90 | 360 | 3.0 | 10.0 | 0.00 | 0.00 | 0.00 | 69 | 1021.1 |
| 20260831152535 | 90 | 185 | 3.0 | 7.0 | 0.00 | 0.00 | 0.00 | 68 | 1021.1 |
| 20260831152035 | 90 | 205 | 1.0 | 9.0 | 0.00 | 0.00 | 0.00 | 70 | 1021.1 |
| 20260831151608 | 89 | 144 | 2.0 | 11.0 | 0.00 | 0.00 | 0.00 | 70 | 1021.0 |
| 20260831151035 | 89 | 186 | 4.0 | 11.0 | 0.00 | 0.00 | 0.00 | 70 | 1020.9 |
| 20260831150535 | 89 | 360 | 5.0 | 11.0 | 0.00 | 0.00 | 0.00 | 71 | 1021.0 |
| 20260831150052 | 88 | 142 | 2.0 | 9.0 | 0.00 | 0.00 | 0.00 | 73 | 1020.8 |
| 20260831145534 | 88 | 153 | 3.0 | 9.0 | 0.00 | 0.00 | 0.00 | 73 | 1020.9 |
| 20260831145035 | 88 | 107 | 3.0 | 9.0 | 0.00 | 0.00 | 0.00 | 73 | 1020.9 |
| 20260831144550 | 88 | 153 | 2.0 | 7.0 | 0.00 | 0.00 | 0.00 | 76 | 1020.7 |
| 20260831144035 | 87 | 160 | 3.0 | 10.0 | 0.00 | 0.00 | 0.00 | 77 | 1020.6 |
| 20260831143535 | 86 | 198 | 4.0 | 10.0 | 0.00 | 0.00 | 0.00 | 76 | 1020.6 |
| 20260831143107 | 86 | 158 | 4.0 | 8.0 | 0.00 | 0.00 | 0.00 | 79 | 1020.6 |
| 20260831142536 | 86 | 0 | 2.0 | 8.0 | 0.00 | 0.00 | 0.00 | 79 | 1020.6 |
| 20260831142034 | 85 | 74 | 1.0 | 7.0 | 0.00 | 0.00 | 0.00 | 81 | 1020.6 |
| 20260831141555 | 85 | 154 | 2.0 | 7.0 | 0.00 | 0.00 | 0.00 | 82 | 1020.6 |
| 20260831141034 | 84 | 0 | 1.0 | 7.0 | 0.00 | 0.00 | 0.00 | 82 | 1020.7 |
| 20260831140535 | 84 | 65 | 2.0 | 5.0 | 0.00 | 0.00 | 0.00 | 83 | 1020.5 |
| 20260831140053 | 83 | 88 | 1.0 | 7.0 | 0.00 | 0.00 | 0.00 | 84 | 1020.5 |
| 20260831135535 | 83 | 115 | 1.0 | 7.0 | 0.00 | 0.00 | 0.00 | 85 | 1020.4 |
| 20260831135036 | 82 | 71 | 0.0 | 3.0 | 0.00 | 0.00 | 0.00 | 86 | 1020.5 |
| 20260831134600 | 82 | 0 | 0.0 | 3.0 | 0.00 | 0.00 | 0.00 | 86 | 1020.4 |
| 20260831134035 | 81 | 0 | 0.0 | 3.0 | 0.00 | 0.00 | 0.00 | 88 | 1020.3 |
| 20260831133534 | 80 | 0 | 0.0 | 3.0 | 0.00 | 0.00 | 0.00 | 90 | 1020.4 |
| 20260831133053 | 80 | 0 | 0.0 | 3.0 | 0.00 | 0.00 | 0.00 | 90 | 1020.4 |
| 20260831132534 | 79 | 0 | 0.0 | 3.0 | 0.00 | 0.00 | 0.00 | 92 | 1020.3 |
| 20260831132035 | 79 | 0 | 0.0 | 2.0 | 0.00 | 0.00 | 0.00 | 92 | 1020.3 |
| 20260831131610 | 78 | 161 | 0.0 | 1.0 | 0.00 | 0.00 | 0.00 | 93 | 1020.3 |
| 20260831131035 | 78 | 0 | 0.0 | 0.0 | 0.00 | 0.00 | 0.00 | 93 | 1020.3 |
| 20260831130536 | 78 | 0 | 0.0 | 0.0 | 0.00 | 0.00 | 0.00 | 93 | 1020.3 |
| 20260831130121 | 77 | 0 | 0.0 | 2.0 | 0.00 | 0.00 | 0.00 | 94 | 1020.1 |
| 20260831125535 | 77 | 0 | 0.0 | 2.0 | 0.00 | 0.00 | 0.00 | 94 | 1020.1 |
| 20260831125037 | 77 | 0 | 0.0 | 0.0 | 0.00 | 0.00 | 0.00 | 94 | 1020.0 |
| 20260831124601 | 77 | 0 | 0.0 | 0.0 | 0.00 | 0.00 | 0.00 | 94 | 1020.0 |
| 20260831124034 | 77 | 0 | 0.0 | 0.0 | 0.00 | 0.00 | 0.00 | 94 | 1019.9 |
| 20260831123534 | 77 | 0 | 0.0 | 1.0 | 0.00 | 0.00 | 0.00 | 94 | 1020.0 |
| 20260831123058 | 77 | 0 | 0.0 | 1.0 | 0.00 | 0.00 | 0.00 | 94 | 1020.0 |
| 20260831122534 | 77 | 0 | 0.0 | 1.0 | 0.00 | 0.00 | 0.00 | 94 | 1019.9 |
| 20260831122035 | 77 | 0 | 0.0 | 0.0 | 0.00 | 0.00 | 0.00 | 94 | 1019.9 |
| 20260831121554 | 77 | 0 | 0.0 | 0.0 | 0.00 | 0.00 | 0.00 | 94 | 1019.8 |
| 20260831121037 | 77 | 0 | 0.0 | 0.0 | 0.00 | 0.00 | 0.00 | 93 | 1019.7 |
| 20260831120535 | 76 | 0 | 0.0 | 0.0 | 0.00 | 0.00 | 0.00 | 93 | 1019.6 |
| 20260831120049 | 76 | 0 | 0.0 | 0.0 | 0.00 | 0.00 | 0.00 | 93 | 1019.6 |
| 20260831115534 | 76 | 0 | 0.0 | 0.0 | 0.00 | 0.00 | 0.00 | 93 | 1019.6 |
| 20260831115034 | 76 | 0 | 0.0 | 0.0 | 0.00 | 0.00 | 0.00 | 93 | 1019.7 |
| 20260831114557 | 76 | 0 | 0.0 | 0.0 | 0.00 | 0.00 | 0.00 | 93 | 1019.6 |
| 20260831114035 | 76 | 0 | 0.0 | 0.0 | 0.00 | 0.00 | 0.00 | 93 | 1019.6 |
| 20260831113536 | 76 | 0 | 0.0 | 0.0 | 0.00 | 0.00 | 0.00 | 93 | 1019.5 |
| 20260831113056 | 76 | 0 | 0.0 | 0.0 | 0.00 | 0.00 | 0.00 | 92 | 1019.6 |
| 20260831112536 | 76 | 0 | 0.0 | 0.0 | 0.00 | 0.00 | 0.00 | 93 | 1019.5 |
| 20260831112035 | 76 | 0 | 0.0 | 0.0 | 0.00 | 0.00 | 0.00 | 92 | 1019.6 |
| 20260831111552 | 76 | 0 | 0.0 | 0.0 | 0.00 | 0.00 | 0.00 | 92 | 1019.5 |
| 20260831111035 | 77 | 0 | 0.0 | 0.0 | 0.00 | 0.00 | 0.00 | 92 | 1019.5 |
| 20260831110535 | 77 | 0 | 0.0 | 0.0 | 0.00 | 0.00 | 0.00 | 92 | 1019.5 |
| 20260831110049 | 77 | 0 | 0.0 | 0.0 | 0.00 | 0.00 | 0.00 | 92 | 1019.5 |
| 20260831105535 | 77 | 0 | 0.0 | 0.0 | 0.00 | 0.00 | 0.00 | 92 | 1019.5 |
| 20260831105036 | 77 | 0 | 0.0 | 0.0 | 0.00 | 0.00 | 0.00 | 92 | 1019.6 |
| 20260831104545 | 77 | 0 | 0.0 | 0.0 | 0.00 | 0.00 | 0.00 | 92 | 1019.6 |
| 20260831104035 | 77 | 0 | 0.0 | 0.0 | 0.00 | 0.00 | 0.00 | 92 | 1019.5 |
| 20260831103534 | 77 | 0 | 0.0 | 0.0 | 0.00 | 0.00 | 0.00 | 92 | 1019.6 |
| 20260831103046 | 77 | 0 | 0.0 | 0.0 | 0.00 | 0.00 | 0.00 | 92 | 1019.6 |
| 20260831102536 | 77 | 0 | 0.0 | 0.0 | 0.00 | 0.00 | 0.00 | 91 | 1019.7 |
| 20260831102034 | 77 | 0 | 0.0 | 0.0 | 0.00 | 0.00 | 0.00 | 91 | 1019.7 |
| 20260831101600 | 77 | 0 | 0.0 | 0.0 | 0.00 | 0.00 | 0.00 | 91 | 1019.7 |
| 20260831101036 | 77 | 0 | 0.0 | 0.0 | 0.00 | 0.00 | 0.00 | 91 | 1019.7 |
| 20260831100536 | 77 | 0 | 0.0 | 0.0 | 0.00 | 0.00 | 0.00 | 91 | 1019.7 |
| 20260831100104 | 77 | 0 | 0.0 | 0.0 | 0.00 | 0.00 | 0.00 | 91 | 1019.6 |
| 20260831095534 | 77 | 0 | 0.0 | 0.0 | 0.00 | 0.00 | 0.00 | 91 | 1019.7 |
| 20260831095037 | 77 | 0 | 0.0 | 0.0 | 0.00 | 0.00 | 0.00 | 91 | 1019.5 |
| 20260831094619 | 78 | 0 | 0.0 | 0.0 | 0.00 | 0.00 | 0.00 | 91 | 1019.7 |
| 20260831094035 | 78 | 0 | 0.0 | 0.0 | 0.00 | 0.00 | 0.00 | 91 | 1019.8 |
| 20260831093535 | 78 | 0 | 0.0 | 0.0 | 0.00 | 0.00 | 0.00 | 91 | 1019.7 |
| 20260831093055 | 78 | 0 | 0.0 | 0.0 | 0.00 | 0.00 | 0.00 | 91 | 1019.7 |
| 20260831092536 | 78 | 0 | 0.0 | 0.0 | 0.00 | 0.00 | 0.00 | 91 | 1019.8 |
| 20260831092036 | 78 | 0 | 0.0 | 0.0 | 0.00 | 0.00 | 0.00 | 91 | 1019.8 |
| 20260831091616 | 78 | 0 | 0.0 | 1.0 | 0.00 | 0.00 | 0.00 | 90 | 1019.9 |
| 20260831091035 | 78 | 0 | 0.0 | 1.0 | 0.00 | 0.00 | 0.00 | 90 | 1019.9 |
| 20260831090535 | 78 | 0 | 0.0 | 1.0 | 0.00 | 0.00 | 0.00 | 90 | 1020.0 |
| 20260831090057 | 78 | 0 | 0.0 | 1.0 | 0.00 | 0.00 | 0.00 | 91 | 1019.9 |
| 20260831085535 | 78 | 0 | 0.0 | 0.0 | 0.00 | 0.00 | 0.00 | 91 | 1019.9 |
| 20260831085036 | 78 | 0 | 0.0 | 0.0 | 0.00 | 0.00 | 0.00 | 90 | 1019.9 |
| 20260831084556 | 78 | 0 | 0.0 | 0.0 | 0.00 | 0.00 | 0.00 | 90 | 1020.0 |
| 20260831084034 | 78 | 0 | 0.0 | 0.0 | 0.00 | 0.00 | 0.00 | 89 | 1020.0 |
| 20260831083537 | 78 | 0 | 0.0 | 0.0 | 0.00 | 0.00 | 0.00 | 89 | 1019.9 |
| 20260831083053 | 78 | 0 | 0.0 | 0.0 | 0.00 | 0.00 | 0.00 | 89 | 1020.0 |
| 20260831082534 | 78 | 0 | 0.0 | 2.0 | 0.00 | 0.00 | 0.00 | 89 | 1019.9 |
| 20260831082035 | 78 | 0 | 0.0 | 2.0 | 0.00 | 0.00 | 0.00 | 89 | 1020.0 |
| 20260831081550 | 78 | 0 | 0.0 | 1.0 | 0.00 | 0.00 | 0.00 | 89 | 1020.0 |
| 20260831081035 | 79 | 0 | 0.0 | 1.0 | 0.00 | 0.00 | 0.00 | 89 | 1020.0 |
| 20260831080534 | 79 | 0 | 0.0 | 3.0 | 0.00 | 0.00 | 0.00 | 89 | 1019.9 |
| 20260831080057 | 79 | 0 | 0.0 | 3.0 | 0.00 | 0.00 | 0.00 | 88 | 1019.9 |
| 20260831075535 | 79 | 0 | 0.0 | 3.0 | 0.00 | 0.00 | 0.00 | 88 | 1019.9 |
| 20260831075038 | 79 | 0 | 0.0 | 4.0 | 0.00 | 0.00 | 0.00 | 88 | 1019.9 |
| 20260831074556 | 79 | 0 | 0.0 | 4.0 | 0.00 | 0.00 | 0.00 | 88 | 1019.8 |
| 20260831074036 | 79 | 0 | 0.0 | 3.0 | 0.00 | 0.00 | 0.00 | 88 | 1019.9 |
| 20260831073536 | 79 | 142 | 0.0 | 3.0 | 0.00 | 0.00 | 0.00 | 87 | 1019.9 |
| 20260831073056 | 79 | 145 | 0.0 | 3.0 | 0.00 | 0.00 | 0.00 | 87 | 1019.9 |
| 20260831072536 | 79 | 0 | 0.0 | 3.0 | 0.00 | 0.00 | 0.00 | 87 | 1019.9 |
| 20260831072035 | 79 | 158 | 0.0 | 3.0 | 0.00 | 0.00 | 0.00 | 87 | 1019.8 |
| 20260831071609 | 80 | 139 | 0.0 | 5.0 | 0.00 | 0.00 | 0.00 | 87 | 1019.8 |
| 20260831071038 | 80 | 139 | 0.0 | 5.0 | 0.00 | 0.00 | 0.00 | 87 | 1019.8 |
| 20260831070538 | 80 | 0 | 0.0 | 5.0 | 0.00 | 0.00 | 0.00 | 86 | 1019.7 |
| 20260831070049 | 80 | 139 | 0.0 | 6.0 | 0.00 | 0.00 | 0.00 | 86 | 1019.8 |
| 20260831065535 | 80 | 117 | 0.0 | 6.0 | 0.00 | 0.00 | 0.00 | 86 | 1019.9 |
| 20260831065035 | 80 | 167 | 0.0 | 4.0 | 0.00 | 0.00 | 0.00 | 86 | 1020.0 |
| 20260831064559 | 80 | 169 | 0.0 | 4.0 | 0.00 | 0.00 | 0.00 | 86 | 1019.9 |
| 20260831064035 | 80 | 87 | 1.0 | 7.0 | 0.00 | 0.00 | 0.00 | 85 | 1019.8 |
| 20260831063534 | 80 | 152 | 0.0 | 7.0 | 0.00 | 0.00 | 0.00 | 85 | 1019.9 |
| 20260831063054 | 80 | 171 | 2.0 | 8.0 | 0.00 | 0.00 | 0.00 | 85 | 1019.9 |
| 20260831062534 | 80 | 155 | 1.0 | 10.0 | 0.00 | 0.00 | 0.00 | 85 | 1019.8 |
| 20260831062036 | 80 | 159 | 2.0 | 11.0 | 0.00 | 0.00 | 0.00 | 85 | 1019.9 |
| 20260831061553 | 81 | 360 | 4.0 | 11.0 | 0.00 | 0.00 | 0.00 | 84 | 1020.0 |
| 20260831061036 | 81 | 160 | 3.0 | 8.0 | 0.00 | 0.00 | 0.00 | 84 | 1020.0 |
| 20260831060535 | 81 | 170 | 3.0 | 8.0 | 0.00 | 0.00 | 0.00 | 84 | 1020.0 |
| 20260831060106 | 81 | 157 | 2.0 | 7.0 | 0.00 | 0.00 | 0.00 | 83 | 1019.9 |
| 20260831055536 | 81 | 173 | 3.0 | 7.0 | 0.00 | 0.00 | 0.00 | 83 | 1019.9 |
| 20260831055035 | 81 | 0 | 4.0 | 7.0 | 0.00 | 0.00 | 0.00 | 83 | 1019.8 |
| 20260831054556 | 81 | 117 | 2.0 | 11.0 | 0.00 | 0.00 | 0.00 | 83 | 1019.8 |
| 20260831054035 | 81 | 132 | 3.0 | 11.0 | 0.00 | 0.00 | 0.00 | 82 | 1019.7 |
| 20260831053536 | 81 | 105 | 4.0 | 10.0 | 0.00 | 0.00 | 0.00 | 82 | 1019.7 |
| 20260831053055 | 81 | 164 | 4.0 | 10.0 | 0.00 | 0.00 | 0.00 | 82 | 1019.8 |
| 20260831052536 | 82 | 140 | 3.0 | 11.0 | 0.00 | 0.00 | 0.00 | 81 | 1019.8 |
| 20260831052035 | 82 | 146 | 4.0 | 11.0 | 0.00 | 0.00 | 0.00 | 81 | 1019.7 |
| 20260831051549 | 82 | 140 | 3.0 | 11.0 | 0.00 | 0.00 | 0.00 | 80 | 1019.7 |
| 20260831051035 | 82 | 97 | 2.0 | 12.0 | 0.00 | 0.00 | 0.00 | 79 | 1019.6 |
| 20260831050535 | 82 | 167 | 4.0 | 12.0 | 0.00 | 0.00 | 0.00 | 79 | 1019.6 |
| 20260831050049 | 82 | 100 | 4.0 | 10.0 | 0.00 | 0.00 | 0.00 | 78 | 1019.6 |
| 20260831045535 | 82 | 150 | 4.0 | 10.0 | 0.00 | 0.00 | 0.00 | 78 | 1019.7 |
| 20260831045035 | 83 | 360 | 3.0 | 10.0 | 0.00 | 0.00 | 0.00 | 77 | 1019.7 |
| 20260831044554 | 83 | 0 | 3.0 | 12.0 | 0.00 | 0.00 | 0.00 | 76 | 1019.6 |
| 20260831044036 | 83 | 152 | 4.0 | 12.0 | 0.00 | 0.00 | 0.00 | 75 | 1019.7 |
| 20260831043536 | 83 | 149 | 3.0 | 11.0 | 0.00 | 0.00 | 0.00 | 75 | 1019.5 |
| 20260831043055 | 83 | 184 | 4.0 | 12.0 | 0.00 | 0.00 | 0.00 | 74 | 1019.6 |
| 20260831042534 | 83 | 360 | 6.0 | 12.0 | 0.00 | 0.00 | 0.00 | 74 | 1019.6 |
| 20260831042036 | 83 | 120 | 3.0 | 10.0 | 0.00 | 0.00 | 0.00 | 73 | 1019.6 |
| 20260831041554 | 84 | 90 | 3.0 | 11.0 | 0.00 | 0.00 | 0.00 | 72 | 1019.6 |
| 20260831041035 | 84 | 146 | 2.0 | 12.0 | 0.00 | 0.00 | 0.00 | 72 | 1019.5 |
| 20260831040535 | 84 | 94 | 5.0 | 12.0 | 0.00 | 0.00 | 0.00 | 71 | 1019.5 |
| 20260831040057 | 84 | 360 | 6.0 | 14.0 | 0.00 | 0.00 | 0.00 | 71 | 1019.4 |
| 20260831035534 | 84 | 113 | 5.0 | 14.0 | 0.00 | 0.00 | 0.00 | 70 | 1019.4 |
| 20260831035034 | 85 | 103 | 4.0 | 11.0 | 0.00 | 0.00 | 0.00 | 69 | 1019.3 |
| 20260831034554 | 85 | 62 | 4.0 | 11.0 | 0.00 | 0.00 | 0.00 | 69 | 1019.4 |
| 20260831034034 | 85 | 135 | 5.0 | 10.0 | 0.00 | 0.00 | 0.00 | 68 | 1019.3 |
| 20260831033534 | 85 | 101 | 3.0 | 10.0 | 0.00 | 0.00 | 0.00 | 67 | 1019.3 |
| 20260831033058 | 85 | 112 | 4.0 | 10.0 | 0.00 | 0.00 | 0.00 | 66 | 1019.2 |
| 20260831032535 | 85 | 82 | 2.0 | 8.0 | 0.00 | 0.00 | 0.00 | 66 | 1019.2 |
| 20260831032036 | 86 | 76 | 3.0 | 10.0 | 0.00 | 0.00 | 0.00 | 65 | 1019.2 |
| 20260831031552 | 86 | 0 | 3.0 | 10.0 | 0.00 | 0.00 | 0.00 | 64 | 1019.1 |
| 20260831031035 | 86 | 148 | 4.0 | 10.0 | 0.00 | 0.00 | 0.00 | 64 | 1019.1 |
| 20260831030535 | 86 | 113 | 3.0 | 12.0 | 0.00 | 0.00 | 0.00 | 63 | 1018.9 |
| 20260831030046 | 86 | 146 | 2.0 | 12.0 | 0.00 | 0.00 | 0.00 | 63 | 1018.8 |
| 20260831025535 | 87 | 150 | 4.0 | 13.0 | 0.00 | 0.00 | 0.00 | 63 | 1018.7 |
| 20260831025036 | 87 | 157 | 3.0 | 13.0 | 0.00 | 0.00 | 0.00 | 62 | 1018.6 |
| 20260831024544 | 87 | 142 | 5.0 | 13.0 | 0.00 | 0.00 | 0.00 | 61 | 1018.5 |
| 20260831024035 | 87 | 360 | 4.0 | 11.0 | 0.00 | 0.00 | 0.00 | 60 | 1018.4 |
| 20260831023535 | 87 | 149 | 4.0 | 11.0 | 0.00 | 0.00 | 0.00 | 59 | 1018.3 |
| 20260831023103 | 88 | 142 | 2.0 | 8.0 | 0.00 | 0.00 | 0.00 | 58 | 1018.2 |
| 20260831022535 | 88 | 130 | 3.0 | 8.0 | 0.00 | 0.00 | 0.00 | 58 | 1018.2 |
| 20260831022035 | 88 | 153 | 2.0 | 8.0 | 0.00 | 0.00 | 0.00 | 58 | 1018.0 |
| 20260831021551 | 88 | 360 | 3.0 | 10.0 | 0.00 | 0.00 | 0.00 | 58 | 1017.9 |
| 20260831021035 | 88 | 360 | 3.0 | 10.0 | 0.00 | 0.00 | 0.00 | 58 | 1017.8 |
| 20260831020535 | 89 | 117 | 4.0 | 10.0 | 0.00 | 0.00 | 0.00 | 58 | 1017.8 |
| 20260831020112 | 89 | 88 | 2.0 | 7.0 | 0.00 | 0.00 | 0.00 | 58 | 1017.7 |
| 20260831015534 | 89 | 0 | 2.0 | 10.0 | 0.00 | 0.00 | 0.00 | 58 | 1017.7 |
| 20260831015034 | 89 | 142 | 3.0 | 10.0 | 0.00 | 0.00 | 0.00 | 57 | 1017.5 |
| 20260831014555 | 89 | 154 | 2.0 | 11.0 | 0.00 | 0.00 | 0.00 | 57 | 1017.5 |
| 20260831014034 | 89 | 82 | 3.0 | 11.0 | 0.00 | 0.00 | 0.00 | 57 | 1017.5 |
| 20260831013534 | 90 | 115 | 4.0 | 11.0 | 0.00 | 0.00 | 0.00 | 57 | 1017.4 |
| 20260831013053 | 90 | 360 | 4.0 | 10.0 | 0.00 | 0.00 | 0.00 | 56 | 1017.3 |
| 20260831012536 | 90 | 84 | 2.0 | 10.0 | 0.00 | 0.00 | 0.00 | 57 | 1017.3 |
| 20260831012036 | 90 | 0 | 3.0 | 11.0 | 0.00 | 0.00 | 0.00 | 56 | 1017.2 |
| 20260831011602 | 91 | 32 | 2.0 | 11.0 | 0.00 | 0.00 | 0.00 | 56 | 1017.2 |
| 20260831011034 | 91 | 0 | 4.0 | 12.0 | 0.00 | 0.00 | 0.00 | 56 | 1017.2 |
| 20260831010535 | 91 | 153 | 3.0 | 12.0 | 0.00 | 0.00 | 0.00 | 55 | 1017.1 |
| 20260831010057 | 92 | 111 | 4.0 | 9.0 | 0.00 | 0.00 | 0.00 | 55 | 1017.0 |
| 20260831005535 | 92 | 148 | 2.0 | 14.0 | 0.00 | 0.00 | 0.00 | 54 | 1017.1 |
| 20260831005035 | 92 | 0 | 5.0 | 14.0 | 0.00 | 0.00 | 0.00 | 54 | 1017.0 |
| 20260831004556 | 93 | 360 | 6.0 | 13.0 | 0.00 | 0.00 | 0.00 | 53 | 1016.9 |
| 20260831004038 | 93 | 104 | 5.0 | 12.0 | 0.00 | 0.00 | 0.00 | 52 | 1016.9 |
| 20260831003536 | 94 | 92 | 5.0 | 14.0 | 0.00 | 0.00 | 0.00 | 51 | 1016.9 |
| 20260831003052 | 95 | 95 | 7.0 | 14.0 | 0.00 | 0.00 | 0.00 | 50 | 1016.6 |
| 20260831002535 | 96 | 98 | 7.0 | 13.0 | 0.00 | 0.00 | 0.00 | 49 | 1016.6 |
| 20260831002035 | 96 | 92 | 3.0 | 12.0 | 0.00 | 0.00 | 0.00 | 48 | 1016.5 |
| 20260831001551 | 96 | 67 | 5.0 | 12.0 | 0.00 | 0.00 | 0.00 | 48 | 1016.5 |
| 20260831001035 | 96 | 105 | 5.0 | 12.0 | 0.00 | 0.00 | 0.00 | 47 | 1016.7 |
| 20260831000535 | 97 | 109 | 5.0 | 13.0 | 0.00 | 0.00 | 0.00 | 46 | 1016.6 |
| 20260831000044 | 97 | 84 | 4.0 | 13.0 | 0.00 | 0.00 | 0.00 | 47 | 1016.7 |
| 20260830235535 | 97 | 169 | 6.0 | 13.0 | 0.00 | 0.00 | 0.00 | 46 | 1016.5 |
| 20260830235036 | 97 | 360 | 3.0 | 13.0 | 0.00 | 0.00 | 0.00 | 47 | 1016.5 |
| 20260830234606 | 97 | 74 | 3.0 | 13.0 | 0.00 | 0.00 | 0.00 | 46 | 1016.4 |
| 20260830234035 | 97 | 91 | 4.0 | 13.0 | 0.00 | 0.00 | 0.00 | 45 | 1016.4 |
| 20260830233536 | 97 | 73 | 5.0 | 11.0 | 0.00 | 0.00 | 0.00 | 46 | 1016.4 |
| 20260830233054 | 98 | 92 | 6.0 | 11.0 | 0.00 | 0.00 | 0.00 | 45 | 1016.4 |
| 20260830232535 | 98 | 153 | 5.0 | 13.0 | 0.00 | 0.00 | 0.00 | 44 | 1016.4 |
| 20260830232035 | 99 | 94 | 5.0 | 13.0 | 0.00 | 0.00 | 0.00 | 44 | 1016.3 |
| 20260830231556 | 99 | 86 | 5.0 | 12.0 | 0.00 | 0.00 | 0.00 | 42 | 1016.4 |
| 20260830231034 | 99 | 92 | 4.0 | 12.0 | 0.00 | 0.00 | 0.00 | 42 | 1016.3 |
| 20260830230538 | 100 | 360 | 4.0 | 12.0 | 0.00 | 0.00 | 0.00 | 42 | 1016.3 |
| 20260830230053 | 100 | 70 | 3.0 | 11.0 | 0.00 | 0.00 | 0.00 | 42 | 1016.3 |
| 20260830225534 | 99 | 161 | 0.0 | 12.0 | 0.00 | 0.00 | 0.00 | 41 | 1016.3 |
| 20260830225035 | 99 | 137 | 3.0 | 12.0 | 0.00 | 0.00 | 0.00 | 41 | 1016.2 |
| 20260830224546 | 99 | 115 | 1.0 | 10.0 | 0.00 | 0.00 | 0.00 | 42 | 1016.3 |
| 20260830224035 | 99 | 360 | 5.0 | 10.0 | 0.00 | 0.00 | 0.00 | 41 | 1016.4 |
| 20260830223535 | 100 | 141 | 3.0 | 8.0 | 0.00 | 0.00 | 0.00 | 40 | 1016.4 |
| 20260830223052 | 100 | 131 | 3.0 | 8.0 | 0.00 | 0.00 | 0.00 | 39 | 1016.4 |
| 20260830222535 | 100 | 141 | 3.0 | 8.0 | 0.00 | 0.00 | 0.00 | 40 | 1016.3 |
| 20260830222034 | 100 | 0 | 0.0 | 9.0 | 0.00 | 0.00 | 0.00 | 40 | 1016.5 |
| 20260830221557 | 100 | 0 | 1.0 | 9.0 | 0.00 | 0.00 | 0.00 | 39 | 1016.5 |
| 20260830221034 | 101 | 80 | 3.0 | 13.0 | 0.00 | 0.00 | 0.00 | 38 | 1016.4 |
| 20260830220535 | 101 | 126 | 4.0 | 13.0 | 0.00 | 0.00 | 0.00 | 37 | 1016.5 |
| 20260830220108 | 102 | 90 | 1.0 | 14.0 | 0.00 | 0.00 | 0.00 | 38 | 1016.5 |
| 20260830215535 | 102 | 155 | 5.0 | 14.0 | 0.00 | 0.00 | 0.00 | 38 | 1016.5 |
| 20260830215035 | 102 | 165 | 3.0 | 10.0 | 0.00 | 0.00 | 0.00 | 38 | 1016.5 |
| 20260830214551 | 102 | 86 | 3.0 | 11.0 | 0.00 | 0.00 | 0.00 | 38 | 1016.6 |
| 20260830214034 | 103 | 360 | 3.0 | 11.0 | 0.00 | 0.00 | 0.00 | 37 | 1016.6 |
| 20260830213534 | 103 | 123 | 3.0 | 11.0 | 0.00 | 0.00 | 0.00 | 38 | 1016.8 |
| 20260830213105 | 102 | 63 | 2.0 | 12.0 | 0.00 | 0.00 | 0.00 | 38 | 1016.9 |
| 20260830212535 | 102 | 58 | 4.0 | 12.0 | 0.00 | 0.00 | 0.00 | 39 | 1017.1 |
| 20260830212035 | 102 | 175 | 1.0 | 12.0 | 0.00 | 0.00 | 0.00 | 39 | 1017.2 |
| 20260830211557 | 101 | 146 | 6.0 | 12.0 | 0.00 | 0.00 | 0.00 | 39 | 1017.2 |
| 20260830211035 | 101 | 360 | 2.0 | 12.0 | 0.00 | 0.00 | 0.00 | 39 | 1017.4 |
| 20260830210535 | 102 | 0 | 6.0 | 12.0 | 0.00 | 0.00 | 0.00 | 38 | 1017.6 |
| 20260830210058 | 103 | 138 | 4.0 | 13.0 | 0.00 | 0.00 | 0.00 | 38 | 1017.5 |
| 20260830205535 | 102 | 150 | 4.0 | 13.0 | 0.00 | 0.00 | 0.00 | 39 | 1017.5 |
| 20260830205035 | 102 | 130 | 1.0 | 13.0 | 0.00 | 0.00 | 0.00 | 38 | 1017.6 |
| 20260830204552 | 102 | 149 | 3.0 | 13.0 | 0.00 | 0.00 | 0.00 | 37 | 1017.7 |
| 20260830204038 | 101 | 171 | 5.0 | 11.0 | 0.00 | 0.00 | 0.00 | 40 | 1017.7 |
| 20260830203535 | 101 | 180 | 4.0 | 11.0 | 0.00 | 0.00 | 0.00 | 39 | 1017.8 |
| 20260830203058 | 101 | 152 | 4.0 | 11.0 | 0.00 | 0.00 | 0.00 | 40 | 1017.9 |
| 20260830202537 | 102 | 172 | 5.0 | 11.0 | 0.00 | 0.00 | 0.00 | 38 | 1018.0 |
| 20260830202038 | 102 | 148 | 3.0 | 11.0 | 0.00 | 0.00 | 0.00 | 40 | 1018.2 |
| 20260830201559 | 101 | 169 | 4.0 | 11.0 | 0.00 | 0.00 | 0.00 | 41 | 1018.2 |
| 20260830201035 | 100 | 165 | 6.0 | 11.0 | 0.00 | 0.00 | 0.00 | 41 | 1018.4 |
| 20260830200535 | 99 | 153 | 2.0 | 11.0 | 0.00 | 0.00 | 0.00 | 42 | 1018.4 |